Home > Weather > Basseterre > Past weeks

Flag for Saint Kitts and Nevis Past Weather in Basseterre, Saint Kitts and Nevis — Yesterday and Last 2 Weeks

Now
82 °F

Thundershowers. Partly cloudy.


Feels Like: 91 °F
Forecast: 82 / 87 °F
Wind: 17 mph from Northeast

Location: Golden Rock

Current Time: Jul 1, 2016 at 2:14:35 AM

Latest Report: Jul 1, 2016 at 12:00 AM


Visibility: N/A

Pressure: 30.07 "Hg

Humidity: 84%

Dew Point: 77 °F

Location of BasseterreLocation

Past Weather in Basseterre — Graph

°F

Basseterre Temperature Yesterday

Maximum temperature yesterday: 90 °F (at 1:00 PM)
Minimum temperature yesterday: 79 °F (at 9:00 PM)
Average temperature yesterday: 84 °F

High & Low Weather Summary for the Past Weeks

 TemperatureHumidityPressure
High90 °F (Jun 18, 1:00 PM)94% (Jun 18, 10:34 PM)30.12 "Hg (Jun 18, 10:34 PM)
Low77 °F (Jun 19, 9:00 PM)52% (Jun 29, 1:00 PM)29.98 "Hg (Jun 19, 4:00 PM)
Average84 °F73%30.05 "Hg
* Reported Jun 16 6:00 AM — Jul 1 12:00 AM, Basseterre, Weather by CustomWeather, © 2016

Note: Actual official high and low records may vary slightly from our data, if they occured in-between our weather recording intervals... More about our weather records

Advertising

Basseterre Weather History for the Previous 24 Hours

Scroll right to see more
 ConditionsComfort  
Time TempWeatherWind HumidityBarometerVisibility
12:00 AM
Fri, Jul 1
82 °FThundershowers. Partly cloudy.17 mph84%30.07 "HgN/A
11:00 PM
Thu, Jun 30
81 °FThundershowers. Passing clouds.17 mph89%30.07 "HgN/A
10:00 PM81 °FPassing clouds.14 mph89%30.07 "HgN/A
9:00 PM79 °FThundershowers. Passing clouds.17 mph94%30.07 "HgN/A
8:00 PM81 °FPassing clouds.14 mph84%30.07 "HgN/A
7:00 PM81 °FScattered showers. Passing clouds.13 mph89%30.04 "HgN/A
6:00 PM81 °FSprinkles. Scattered clouds.15 mph84%30.07 "HgN/A
5:00 PM86 °FPassing clouds.15 mph66%30.01 "HgN/A
4:00 PM88 °FPassing clouds.18 mph59%30.01 "HgN/A
3:00 PM88 °FPassing clouds.14 mph55%30.04 "HgN/A
2:00 PM88 °FPassing clouds.18 mph59%30.04 "HgN/A
1:00 PM90 °FPassing clouds.15 mph59%30.07 "HgN/A
12:00 PM88 °FScattered clouds.17 mph59%30.07 "HgN/A
11:00 AM88 °FScattered clouds.12 mph59%30.07 "HgN/A
10:00 AM86 °FScattered clouds.14 mph62%30.07 "HgN/A
9:00 AM86 °FScattered clouds.14 mph59%30.07 "HgN/A
8:00 AM84 °FScattered clouds.20 mph70%30.07 "HgN/A
7:00 AM82 °FPartly sunny.12 mph74%30.07 "HgN/A
6:00 AM81 °FScattered showers. Scattered clouds.12 mph66%30.07 "HgN/A
Weather by CustomWeather, © 2016

See weather overviewHow to use our weather pages